^^
Station Historical Data
Daily Summary for March 23, 2017 Units:  English    Metric   Both
« Previous Day
Next Day »
Daily Weekly Monthly Yearly Custom
  High: Low: Average:
Temperature: 43.2 °F 18.7 °F 30.6 °F
Dew Point: 19.5 °F 5.7 °F 11.1 °F
Humidity: 65 % 24 % 46 %
Wind Speed: 7.8 mph 0.0 mph 1.4 mph
Wind Gust: 12.7 mph - -
Wind:- - West
Pressure: 30.67 in 30.52 in -
Precipitation: 0.00 in    
Historical Graphs
 
 
Tabular Data for March 23, 2017
Time Temperature Dew Point Pressure Wind Wind Speed Wind Gust Humidity Rainfall Rate (Hourly) solar Conditions
00:03 24.0 °F 6.2 °F 30.52 in Calm     46 % 0.00 in 0.0 W/m2 CLR
00:08 23.8 °F 6.0 °F 30.52 in Calm     46 % 0.00 in 0.0 W/m2 CLR
00:13 23.8 °F 6.0 °F 30.52 in NNW 0.5 mph   46 % 0.00 in 0.0 W/m2 CLR
00:18 23.7 °F 5.9 °F 30.52 in Calm     46 % 0.00 in 0.0 W/m2 CLR
00:23 23.5 °F 5.7 °F 30.52 in Calm     46 % 0.00 in 0.0 W/m2 CLR
00:29 23.2 °F 5.9 °F 30.52 in Calm     47 % 0.00 in 0.0 W/m2 CLR
00:34 23.0 °F 6.2 °F 30.52 in Calm     48 % 0.00 in 0.0 W/m2 CLR
00:39 22.8 °F 6.5 °F 30.52 in Calm     49 % 0.00 in 0.0 W/m2 CLR
00:44 22.6 °F 6.3 °F 30.53 in Calm     49 % 0.00 in 0.0 W/m2 CLR
00:49 22.6 °F 6.7 °F 30.53 in Calm     50 % 0.00 in 0.0 W/m2 CLR
00:54 22.6 °F 6.3 °F 30.53 in Calm     49 % 0.00 in 0.0 W/m2 CLR
00:59 22.7 °F 6.8 °F 30.53 in NNW 0.2 mph 1.2 mph 50 % 0.00 in 0.0 W/m2 CLR
01:04 22.6 °F 6.7 °F 30.53 in Calm     50 % 0.00 in 0.0 W/m2 CLR
01:09 22.8 °F 6.9 °F 30.53 in NNW 0.1 mph 1.2 mph 50 % 0.00 in 0.0 W/m2 CLR
01:14 22.6 °F 7.2 °F 30.53 in Calm     51 % 0.00 in 0.0 W/m2 CLR
01:19 22.5 °F 7.5 °F 30.53 in Calm     52 % 0.00 in 0.0 W/m2 CLR
01:24 22.3 °F 7.3 °F 30.53 in NNW 2.1 mph 4.6 mph 52 % 0.00 in 0.0 W/m2 CLR
01:29 22.4 °F 7.4 °F 30.53 in NNW 1.4 mph 4.0 mph 52 % 0.00 in 0.0 W/m2 CLR
01:34 22.5 °F 6.6 °F 30.53 in NNW 3.3 mph 8.0 mph 50 % 0.00 in 0.0 W/m2 CLR
01:39 22.6 °F 6.7 °F 30.53 in NW 0.7 mph 4.0 mph 50 % 0.00 in 0.0 W/m2 CLR
01:49 22.0 °F 6.6 °F 30.53 in NW 0.2 mph 3.5 mph 51 % 0.00 in 0.0 W/m2 CLR
01:54 21.9 °F 6.9 °F 30.53 in NW 0.3 mph 3.5 mph 52 % 0.00 in 0.0 W/m2 CLR
01:59 21.9 °F 7.4 °F 30.53 in NW 4.4 mph 8.1 mph 53 % 0.00 in 0.0 W/m2 CLR
02:04 21.9 °F 6.9 °F 30.53 in NNW 4.6 mph 8.1 mph 52 % 0.00 in 0.0 W/m2 CLR
02:09 22.0 °F 7.0 °F 30.54 in NW 1.9 mph 4.6 mph 52 % 0.00 in 0.0 W/m2 CLR
02:14 22.1 °F 7.1 °F 30.54 in NNW 2.1 mph 5.8 mph 52 % 0.00 in 0.0 W/m2 CLR
02:19 22.1 °F 7.1 °F 30.54 in NW 2.9 mph 8.1 mph 52 % 0.00 in 0.0 W/m2 CLR
02:24 22.1 °F 7.1 °F 30.54 in Calm     52 % 0.00 in 0.0 W/m2 CLR
02:29 22.0 °F 7.0 °F 30.54 in NW 1.5 mph 6.9 mph 52 % 0.00 in 0.0 W/m2 CLR
02:34 21.9 °F 6.9 °F 30.54 in Calm   1.2 mph 52 % 0.00 in 0.0 W/m2 CLR
02:39 21.9 °F 6.9 °F 30.54 in Calm     52 % 0.00 in 0.0 W/m2 CLR
02:44 21.8 °F 7.3 °F 30.54 in Calm     53 % 0.00 in 0.0 W/m2 CLR
02:49 21.8 °F 7.3 °F 30.54 in NNW 0.4 mph 2.3 mph 53 % 0.00 in 0.0 W/m2 CLR
02:54 21.9 °F 7.4 °F 30.54 in NNW 0.6 mph 3.5 mph 53 % 0.00 in 0.0 W/m2 CLR
02:59 21.9 °F 7.4 °F 30.54 in Calm   3.5 mph 53 % 0.00 in 0.0 W/m2 CLR
03:04 21.8 °F 6.8 °F 30.54 in NNW 3.5 mph 4.0 mph 52 % 0.00 in 0.0 W/m2 CLR
03:09 21.9 °F 6.9 °F 30.54 in NW 0.2 mph 2.3 mph 52 % 0.00 in 0.0 W/m2 CLR
03:14 21.8 °F 7.3 °F 30.54 in NW 0.6 mph 4.6 mph 53 % 0.00 in 0.0 W/m2 CLR
03:19 21.8 °F 7.3 °F 30.54 in NW 0.2 mph 3.5 mph 53 % 0.00 in 0.0 W/m2 CLR
03:25 21.8 °F 7.3 °F 30.54 in Calm   3.5 mph 53 % 0.00 in 0.0 W/m2 CLR
03:30 21.8 °F 7.3 °F 30.54 in Calm     53 % 0.00 in 0.0 W/m2 CLR
03:35 21.7 °F 7.2 °F 30.54 in Calm     53 % 0.00 in 0.0 W/m2 CLR
03:40 21.6 °F 7.1 °F 30.54 in NW 0.1 mph 1.2 mph 53 % 0.00 in 0.0 W/m2 CLR
03:45 21.6 °F 6.7 °F 30.54 in NW 0.2 mph 3.5 mph 52 % 0.00 in 0.0 W/m2 CLR
03:50 21.6 °F 7.1 °F 30.54 in Calm     53 % 0.00 in 0.0 W/m2 CLR
03:55 21.6 °F 6.7 °F 30.54 in Calm     52 % 0.00 in 0.0 W/m2 CLR
04:00 21.7 °F 6.8 °F 30.54 in Calm     52 % 0.00 in 0.0 W/m2 CLR
04:05 21.7 °F 6.8 °F 30.54 in NW 0.1 mph   52 % 0.00 in 0.0 W/m2 CLR
04:10 21.4 °F 7.3 °F 30.55 in Calm     54 % 0.00 in 0.0 W/m2 CLR
04:15 21.1 °F 7.0 °F 30.55 in Calm     54 % 0.00 in 0.0 W/m2 CLR
04:20 20.6 °F 7.4 °F 30.55 in Calm     56 % 0.00 in 0.0 W/m2 CLR
04:25 20.1 °F 7.7 °F 30.55 in Calm     58 % 0.00 in 0.0 W/m2 CLR
04:30 19.8 °F 7.8 °F 30.55 in Calm     59 % 0.00 in 0.0 W/m2 CLR
04:35 19.6 °F 8.0 °F 30.55 in Calm     60 % 0.00 in 0.0 W/m2 CLR
04:40 19.4 °F 7.8 °F 30.55 in Calm     60 % 0.00 in 0.0 W/m2 CLR
04:45 19.5 °F 7.9 °F 30.56 in Calm     60 % 0.00 in 0.0 W/m2 CLR
04:50 19.6 °F 8.3 °F 30.56 in Calm     61 % 0.00 in 0.0 W/m2 CLR
04:55 19.6 °F 8.0 °F 30.56 in Calm     60 % 0.00 in 0.0 W/m2 CLR
04:57 19.4 °F 7.8 °F 30.56 in Calm     60 % 0.00 in 0.0 W/m2 CLR
05:02 19.1 °F 7.8 °F 30.56 in Calm     61 % 0.00 in 0.0 W/m2 CLR
05:07 18.9 °F 7.7 °F 30.57 in Calm     61 % 0.00 in 0.0 W/m2 CLR
05:12 18.8 °F 7.9 °F 30.57 in Calm     62 % 0.00 in 0.0 W/m2 CLR
05:17 18.8 °F 7.9 °F 30.57 in Calm     62 % 0.00 in 0.0 W/m2 CLR
05:22 18.8 °F 7.9 °F 30.58 in Calm     62 % 0.00 in 0.0 W/m2 CLR
05:27 18.7 °F 7.8 °F 30.58 in Calm     62 % 0.00 in 0.0 W/m2 CLR
05:32 18.8 °F 8.3 °F 30.58 in Calm     63 % 0.00 in 0.0 W/m2 CLR
05:37 19.0 °F 8.5 °F 30.58 in Calm     63 % 0.00 in 0.0 W/m2 CLR
05:42 18.9 °F 8.4 °F 30.58 in Calm     63 % 0.00 in 0.0 W/m2 CLR
05:47 19.0 °F 8.5 °F 30.59 in Calm     63 % 0.00 in 0.0 W/m2 CLR
05:52 19.0 °F 8.5 °F 30.59 in Calm     63 % 0.00 in 0.0 W/m2 CLR
05:57 19.1 °F 8.2 °F 30.59 in Calm     62 % 0.00 in 0.0 W/m2 CLR
06:02 19.2 °F 8.7 °F 30.59 in Calm     63 % 0.00 in 0.0 W/m2 CLR
06:07 19.0 °F 8.5 °F 30.60 in Calm     63 % 0.00 in 0.0 W/m2 CLR
06:12 19.0 °F 8.5 °F 30.60 in Calm     63 % 0.00 in 0.0 W/m2 CLR
06:17 19.2 °F 8.3 °F 30.60 in Calm     62 % 0.00 in 0.0 W/m2 CLR
06:22 19.2 °F 8.3 °F 30.61 in Calm     62 % 0.00 in 0.0 W/m2 CLR
06:25 19.2 °F 8.7 °F 30.61 in Calm     63 % 0.00 in 0.0 W/m2 CLR
06:30 19.3 °F 8.8 °F 30.61 in Calm     63 % 0.00 in 0.0 W/m2 CLR
06:35 19.5 °F 9.0 °F 30.61 in Calm     63 % 0.00 in 0.0 W/m2 CLR
06:40 20.1 °F 8.8 °F 30.61 in Calm     61 % 0.00 in 0.0 W/m2 CLR
06:45 20.6 °F 8.5 °F 30.61 in NW 0.4 mph   59 % 0.00 in 0.0 W/m2 CLR
06:50 20.9 °F 8.4 °F 30.61 in Calm   3.0 mph 58 % 0.00 in 0.0 W/m2 CLR
07:00 20.9 °F 8.4 °F 30.62 in NW 0.1 mph 2.3 mph 58 % 0.00 in 0.0 W/m2 CLR
07:05 20.9 °F 8.4 °F 30.62 in Calm     58 % 0.00 in 5.0 W/m2 CLR
07:10 21.1 °F 8.6 °F 30.62 in NW 0.4 mph 2.3 mph 58 % 0.00 in 9.0 W/m2 CLR
07:15 21.1 °F 8.6 °F 30.62 in NW 0.3 mph 2.3 mph 58 % 0.00 in 11.0 W/m2 CLR
07:20 21.1 °F 9.0 °F 30.62 in Calm     59 % 0.00 in 14.0 W/m2 CLR
07:25 21.3 °F 9.2 °F 30.63 in Calm     59 % 0.00 in 16.0 W/m2 CLR
07:30 21.6 °F 9.1 °F 30.63 in Calm     58 % 0.00 in 18.0 W/m2 CLR
07:35 21.5 °F 9.0 °F 30.63 in Calm     58 % 0.00 in 21.0 W/m2 CLR
07:40 20.8 °F 8.7 °F 30.64 in Calm     59 % 0.00 in 21.0 W/m2 CLR
07:45 20.4 °F 8.7 °F 30.64 in Calm     60 % 0.00 in 28.0 W/m2 BKN
07:50 20.6 °F 8.9 °F 30.64 in NW 0.2 mph 1.2 mph 60 % 0.00 in 54.0 W/m2 FEW
07:55 21.0 °F 9.3 °F 30.64 in Calm     60 % 0.00 in 77.0 W/m2 CLR
08:00 21.4 °F 9.7 °F 30.65 in Calm     60 % 0.00 in 56.0 W/m2 SCT
08:05 21.9 °F 9.7 °F 30.65 in Calm     59 % 0.00 in 72.0 W/m2 FEW
08:10 22.5 °F 9.9 °F 30.65 in Calm     58 % 0.00 in 77.0 W/m2 FEW
08:15 22.7 °F 9.3 °F 30.65 in Calm   1.2 mph 56 % 0.00 in 51.0 W/m2 SCT
08:20 23.0 °F 9.6 °F 30.65 in West 2.6 mph 3.5 mph 56 % 0.00 in 56.0 W/m2 BKN
08:30 23.6 °F 10.2 °F 30.65 in WSW 2.0 mph 4.0 mph 56 % 0.00 in 70.0 W/m2 SCT
08:35 24.1 °F 10.6 °F 30.65 in West 0.5 mph 3.5 mph 56 % 0.00 in 91.0 W/m2 BKN
08:40 24.6 °F 10.7 °F 30.65 in NW 0.7 mph 3.5 mph 55 % 0.00 in 97.0 W/m2 BKN
08:45 25.0 °F 10.3 °F 30.65 in NW 2.1 mph 3.5 mph 53 % 0.00 in 105.0 W/m2 BKN
08:50 25.2 °F 10.9 °F 30.65 in North 1.8 mph 3.5 mph 54 % 0.00 in 155.0 W/m2 SCT
08:55 25.4 °F 10.6 °F 30.66 in NW 0.8 mph 2.3 mph 53 % 0.00 in 257.0 W/m2 CLR
09:00 26.2 °F 11.4 °F 30.66 in Calm   1.2 mph 53 % 0.00 in 281.0 W/m2 CLR
09:05 26.1 °F 10.9 °F 30.66 in NNW 1.0 mph 4.6 mph 52 % 0.00 in 220.0 W/m2 CLR
09:10 26.1 °F 11.7 °F 30.66 in NNW 1.7 mph 3.5 mph 54 % 0.00 in 271.0 W/m2 CLR
09:15 27.1 °F 11.8 °F 30.66 in NW 2.3 mph 4.6 mph 52 % 0.00 in 376.0 W/m2 CLR
09:16 27.2 °F 12.3 °F 30.66 in NW 0.9 mph 4.6 mph 53 % 0.00 in 404.0 W/m2 CLR
09:21 27.1 °F 11.8 °F 30.65 in NNE 7.0 mph 9.2 mph 52 % 0.00 in 454.0 W/m2 CLR
09:26 27.1 °F 12.2 °F 30.66 in North 5.9 mph 8.1 mph 53 % 0.00 in 471.0 W/m2 CLR
09:31 27.8 °F 12.4 °F 30.66 in North 2.5 mph 6.9 mph 52 % 0.00 in 485.0 W/m2 CLR
09:36 28.2 °F 12.4 °F 30.66 in North 2.7 mph 8.0 mph 51 % 0.00 in 503.0 W/m2 CLR
09:41 28.1 °F 11.8 °F 30.66 in NNE 3.7 mph 8.1 mph 50 % 0.00 in 519.0 W/m2 CLR
09:46 28.7 °F 12.4 °F 30.66 in NNW 6.4 mph 10.4 mph 50 % 0.00 in 534.0 W/m2 CLR
09:51 28.7 °F 11.9 °F 30.66 in NW 3.8 mph 3.8 mph 49 % 0.00 in 554.0 W/m2 CLR
09:56 28.6 °F 11.8 °F 30.66 in NNE 3.9 mph 5.8 mph 49 % 0.00 in 570.0 W/m2 CLR
09:57 28.6 °F 11.8 °F 30.66 in NNE 4.2 mph 5.8 mph 49 % 0.00 in 570.0 W/m2 CLR
10:02 28.3 °F 11.6 °F 30.66 in NNE 3.7 mph 11.5 mph 49 % 0.00 in 585.0 W/m2 CLR
10:07 29.3 °F 12.5 °F 30.66 in NNE 1.8 mph 4.6 mph 49 % 0.00 in 599.0 W/m2 CLR
10:12 28.5 °F 11.3 °F 30.66 in NNW 2.3 mph 4.6 mph 48 % 0.00 in 617.0 W/m2 CLR
10:17 30.0 °F 12.7 °F 30.66 in NW 2.5 mph 5.8 mph 48 % 0.00 in 629.0 W/m2 CLR
10:22 29.7 °F 11.4 °F 30.66 in NNW 0.8 mph 3.5 mph 46 % 0.00 in 643.0 W/m2 CLR
10:27 29.8 °F 11.5 °F 30.66 in NNW 2.8 mph 8.1 mph 46 % 0.00 in 661.0 W/m2 CLR
10:32 30.4 °F 12.1 °F 30.66 in NW 1.8 mph 9.2 mph 46 % 0.00 in 668.0 W/m2 CLR
10:37 30.5 °F 11.7 °F 30.66 in NNW 2.4 mph 5.8 mph 45 % 0.00 in 680.0 W/m2 CLR
10:42 29.3 °F 10.1 °F 30.66 in North 0.3 mph 3.5 mph 44 % 0.00 in 693.0 W/m2 CLR
10:47 29.2 °F 11.0 °F 30.66 in North 3.6 mph 5.8 mph 46 % 0.00 in 707.0 W/m2 CLR
10:52 30.6 °F 12.2 °F 30.66 in North 1.9 mph 4.0 mph 46 % 0.00 in 715.0 W/m2 CLR
10:57 31.3 °F 12.4 °F 30.66 in NE 1.5 mph 6.0 mph 45 % 0.00 in 729.0 W/m2 CLR
11:02 31.0 °F 11.6 °F 30.66 in NNE 5.7 mph 8.1 mph 44 % 0.00 in 742.0 W/m2 CLR
11:07 32.3 °F 12.8 °F 30.67 in NNW 4.9 mph 6.0 mph 44 % 0.00 in 754.0 W/m2 CLR
11:12 32.2 °F 11.6 °F 30.66 in NW 0.6 mph 5.8 mph 42 % 0.00 in 765.0 W/m2 CLR
11:17 31.0 °F 10.0 °F 30.66 in WNW 2.7 mph 6.9 mph 41 % 0.00 in 772.0 W/m2 CLR
11:22 31.6 °F 11.6 °F 30.66 in NW 0.4 mph 3.0 mph 43 % 0.00 in 780.0 W/m2 CLR
11:27 32.3 °F 11.7 °F 30.66 in North 2.6 mph 4.0 mph 42 % 0.00 in 789.0 W/m2 CLR
11:32 31.5 °F 11.0 °F 30.66 in NNW 1.0 mph 3.0 mph 42 % 0.00 in 796.0 W/m2 CLR
11:37 32.5 °F 10.8 °F 30.66 in West 5.7 mph 11.5 mph 40 % 0.00 in 807.0 W/m2 CLR
11:42 32.4 °F 10.2 °F 30.65 in WNW 4.1 mph 9.2 mph 39 % 0.00 in 814.0 W/m2 CLR
11:48 32.5 °F 10.8 °F 30.65 in WNW 0.1 mph 3.5 mph 40 % 0.00 in 823.0 W/m2 CLR
11:53 32.6 °F 11.5 °F 30.65 in WNW 1.5 mph 2.0 mph 41 % 0.00 in 828.0 W/m2 CLR
11:58 34.1 °F 11.7 °F 30.64 in NW 1.9 mph 8.1 mph 39 % 0.00 in 835.0 W/m2 CLR
12:03 33.9 °F 14.3 °F 30.64 in NNW 1.2 mph 3.5 mph 44 % 0.00 in 844.0 W/m2 CLR
12:08 34.1 °F 12.3 °F 30.64 in West 0.8 mph 6.0 mph 40 % 0.00 in 842.0 W/m2 CLR
12:13 34.2 °F 12.4 °F 30.63 in NNW 3.6 mph 9.2 mph 40 % 0.00 in 844.0 W/m2 CLR
12:18 34.2 °F 12.9 °F 30.63 in WNW 3.2 mph 5.0 mph 41 % 0.00 in 851.0 W/m2 CLR
12:23 34.5 °F 11.5 °F 30.63 in WNW 0.9 mph 3.5 mph 38 % 0.00 in 856.0 W/m2 CLR
12:28 35.0 °F 11.9 °F 30.63 in NNW 1.8 mph 8.1 mph 38 % 0.00 in 861.0 W/m2 CLR
12:33 34.8 °F 11.1 °F 30.63 in NW 2.4 mph 3.5 mph 37 % 0.00 in 863.0 W/m2 CLR
12:38 35.4 °F 12.3 °F 30.63 in NNW 2.6 mph 6.9 mph 38 % 0.00 in 865.0 W/m2 CLR
12:43 35.0 °F 10.7 °F 30.62 in West 6.0 mph 6.0 mph 36 % 0.00 in 872.0 W/m2 CLR
12:48 35.5 °F 10.5 °F 30.63 in West 4.8 mph 9.2 mph 35 % 0.00 in 872.0 W/m2 CLR
12:53 34.6 °F 9.1 °F 30.62 in West 0.3 mph 3.5 mph 34 % 0.00 in 872.0 W/m2 CLR
12:58 35.0 °F 10.1 °F 30.62 in NW 2.0 mph 4.6 mph 35 % 0.00 in 874.0 W/m2 CLR
13:03 37.0 °F 12.5 °F 30.62 in NNW 2.6 mph 8.1 mph 36 % 0.00 in 877.0 W/m2 CLR
13:08 37.4 °F 10.2 °F 30.62 in WNW 2.3 mph 3.5 mph 32 % 0.00 in 874.0 W/m2 CLR
13:13 35.7 °F 8.7 °F 30.61 in WNW 0.4 mph 2.3 mph 32 % 0.00 in 872.0 W/m2 CLR
13:18 36.1 °F 9.0 °F 30.61 in West 7.0 mph 10.4 mph 32 % 0.00 in 875.0 W/m2 CLR
13:23 36.0 °F 7.5 °F 30.61 in West 1.5 mph 3.5 mph 30 % 0.00 in 872.0 W/m2 CLR
13:28 37.3 °F 10.8 °F 30.61 in WNW 3.5 mph 6.9 mph 33 % 0.00 in 870.0 W/m2 CLR
13:33 37.1 °F 9.2 °F 30.60 in NW 2.5 mph 9.0 mph 31 % 0.00 in 865.0 W/m2 CLR
13:38 38.9 °F 12.9 °F 30.60 in NNW 3.9 mph 9.2 mph 34 % 0.00 in 861.0 W/m2 CLR
13:43 38.4 °F 12.4 °F 30.59 in WNW 1.8 mph 3.5 mph 34 % 0.00 in 865.0 W/m2 CLR
13:48 38.2 °F 9.4 °F 30.59 in SW 3.6 mph 6.9 mph 30 % 0.00 in 856.0 W/m2 CLR
13:53 39.7 °F 12.2 °F 30.59 in NNW 4.3 mph 9.0 mph 32 % 0.00 in 849.0 W/m2 CLR
13:58 38.7 °F 10.6 °F 30.59 in West 4.8 mph 6.9 mph 31 % 0.00 in 842.0 W/m2 CLR
14:08 39.6 °F 12.1 °F 30.58 in SW 3.7 mph 8.1 mph 32 % 0.00 in 837.0 W/m2 CLR
14:09 39.2 °F 10.3 °F 30.58 in WNW 6.5 mph 11.5 mph 30 % 0.00 in 833.0 W/m2 CLR
14:13 39.0 °F 10.9 °F 30.58 in WSW 7.0 mph 12.7 mph 31 % 0.00 in 830.0 W/m2 CLR
14:18 38.8 °F 11.4 °F 30.58 in WSW 2.5 mph 4.6 mph 32 % 0.00 in 821.0 W/m2 CLR
14:23 38.4 °F 10.3 °F 30.58 in North 0.2 mph 4.0 mph 31 % 0.00 in 807.0 W/m2 CLR
14:28 41.1 °F 12.0 °F 30.57 in NW 2.8 mph 11.5 mph 30 % 0.00 in 812.0 W/m2 CLR
14:33 40.9 °F 11.8 °F 30.57 in WSW 1.1 mph 5.8 mph 30 % 0.00 in 795.0 W/m2 CLR
14:43 40.8 °F 9.3 °F 30.57 in NW 1.1 mph 6.9 mph 27 % 0.00 in 775.0 W/m2 CLR
14:48 41.3 °F 10.6 °F 30.57 in WSW 2.2 mph 6.9 mph 28 % 0.00 in 759.0 W/m2 CLR
14:53 40.9 °F 10.2 °F 30.57 in WSW 2.7 mph 9.2 mph 28 % 0.00 in 735.0 W/m2 CLR
14:58 40.5 °F 10.7 °F 30.57 in WSW 3.8 mph 8.1 mph 29 % 0.00 in 745.0 W/m2 CLR
15:03 41.1 °F 12.0 °F 30.57 in West 6.0 mph 10.4 mph 30 % 0.00 in 740.0 W/m2 CLR
15:08 41.9 °F 11.9 °F 30.57 in WNW 1.2 mph 3.5 mph 29 % 0.00 in 726.0 W/m2 CLR
15:13 41.1 °F 10.4 °F 30.57 in SW 3.3 mph 6.9 mph 28 % 0.00 in 731.0 W/m2 CLR
15:18 41.5 °F 10.8 °F 30.57 in West 7.8 mph 10.4 mph 28 % 0.00 in 708.0 W/m2 CLR
15:23 40.9 °F 10.2 °F 30.56 in West 1.9 mph 9.2 mph 28 % 0.00 in 684.0 W/m2 CLR
15:28 41.0 °F 10.3 °F 30.56 in West 1.6 mph 11.5 mph 28 % 0.00 in 687.0 W/m2 CLR
15:33 41.2 °F 12.1 °F 30.56 in SW 2.5 mph 4.6 mph 30 % 0.00 in 675.0 W/m2 CLR
15:38 42.0 °F 12.0 °F 30.56 in WSW 3.4 mph 12.7 mph 29 % 0.00 in 661.0 W/m2 CLR
15:43 40.8 °F 10.9 °F 30.56 in South 1.7 mph 3.5 mph 29 % 0.00 in 645.0 W/m2 CLR
15:48 40.7 °F 11.6 °F 30.56 in Calm     30 % 0.00 in 629.0 W/m2 CLR
15:53 41.5 °F 11.6 °F 30.55 in SW 6.9 mph 11.5 mph 29 % 0.00 in 619.0 W/m2 CLR
15:58 42.0 °F 12.0 °F 30.55 in West 7.0 mph 11.5 mph 29 % 0.00 in 606.0 W/m2 CLR
16:03 41.7 °F 10.9 °F 30.55 in SW 2.3 mph 8.1 mph 28 % 0.00 in 587.0 W/m2 CLR
16:08 41.8 °F 12.6 °F 30.55 in SSW 4.1 mph 9.2 mph 30 % 0.00 in 575.0 W/m2 CLR
16:13 41.9 °F 11.9 °F 30.55 in WSW 2.1 mph 10.4 mph 29 % 0.00 in 559.0 W/m2 CLR
16:18 42.1 °F 11.3 °F 30.55 in SSW 3.7 mph 5.8 mph 28 % 0.00 in 545.0 W/m2 CLR
16:23 41.7 °F 10.1 °F 30.54 in WSW 2.5 mph 8.1 mph 27 % 0.00 in 527.0 W/m2 CLR
16:28 42.5 °F 11.6 °F 30.54 in WNW 1.7 mph 8.1 mph 28 % 0.00 in 513.0 W/m2 CLR
16:33 42.5 °F 10.8 °F 30.54 in SSW 3.2 mph 7.0 mph 27 % 0.00 in 497.0 W/m2 CLR
16:38 42.5 °F 10.8 °F 30.54 in WSW 3.0 mph 6.9 mph 27 % 0.00 in 478.0 W/m2 CLR
16:43 42.9 °F 11.2 °F 30.54 in WSW 3.8 mph 8.1 mph 27 % 0.00 in 462.0 W/m2 CLR
16:49 42.9 °F 11.2 °F 30.54 in West 5.3 mph 11.5 mph 27 % 0.00 in 445.0 W/m2 CLR
16:59 42.6 °F 10.1 °F 30.54 in West 2.3 mph 3.5 mph 26 % 0.00 in 411.0 W/m2 CLR
17:04 43.2 °F 11.4 °F 30.53 in WSW 4.3 mph 11.0 mph 27 % 0.00 in 396.0 W/m2 CLR
17:09 42.6 °F 10.1 °F 30.53 in SSW 4.8 mph 9.2 mph 26 % 0.00 in 376.0 W/m2 CLR
17:14 42.7 °F 9.3 °F 30.53 in WSW 7.3 mph 11.5 mph 25 % 0.00 in 339.0 W/m2 CLR
17:19 42.6 °F 9.2 °F 30.53 in West 6.0 mph 9.2 mph 25 % 0.00 in 343.0 W/m2 CLR
17:24 42.6 °F 8.3 °F 30.53 in Calm     24 % 0.00 in 322.0 W/m2 CLR
17:29 42.7 °F 11.8 °F 30.53 in WSW 1.9 mph 6.9 mph 28 % 0.00 in 304.0 W/m2 CLR
17:34 42.8 °F 11.1 °F 30.53 in West 4.1 mph 9.2 mph 27 % 0.00 in 287.0 W/m2 CLR
17:39 42.8 °F 12.7 °F 30.53 in SW 5.2 mph 9.0 mph 29 % 0.00 in 267.0 W/m2 CLR
17:44 42.5 °F 11.6 °F 30.53 in WSW 3.8 mph 10.0 mph 28 % 0.00 in 244.0 W/m2 CLR
17:49 42.4 °F 12.3 °F 30.53 in West 2.7 mph 6.0 mph 29 % 0.00 in 223.0 W/m2 CLR
17:54 42.3 °F 11.5 °F 30.52 in West 0.1 mph   28 % 0.00 in 204.0 W/m2 CLR
17:59 42.5 °F 11.6 °F 30.52 in WNW 3.6 mph 10.4 mph 28 % 0.00 in 183.0 W/m2 CLR
18:04 42.9 °F 12.0 °F 30.52 in West 2.8 mph 8.1 mph 28 % 0.00 in 160.0 W/m2 CLR
18:09 42.8 °F 11.9 °F 30.52 in West 5.3 mph 7.0 mph 28 % 0.00 in 139.0 W/m2 CLR
18:14 42.4 °F 11.5 °F 30.52 in SW 2.1 mph 4.6 mph 28 % 0.00 in 120.0 W/m2 CLR
18:19 42.3 °F 12.3 °F 30.52 in WSW 0.1 mph 3.5 mph 29 % 0.00 in 88.0 W/m2 FEW
18:24 42.6 °F 11.7 °F 30.53 in WSW 4.2 mph 6.9 mph 28 % 0.00 in 83.0 W/m2 FEW
18:29 42.6 °F 11.7 °F 30.52 in West 0.9 mph 3.5 mph 28 % 0.00 in 65.0 W/m2 SCT
18:34 42.4 °F 12.3 °F 30.52 in SW 1.5 mph 4.6 mph 29 % 0.00 in 53.0 W/m2 SCT
18:39 41.8 °F 12.6 °F 30.52 in SW 2.2 mph 3.5 mph 30 % 0.00 in 39.0 W/m2 BKN
18:44 41.5 °F 13.1 °F 30.52 in Calm     31 % 0.00 in 28.0 W/m2 BKN
18:49 41.2 °F 12.8 °F 30.52 in WSW 0.9 mph 2.3 mph 31 % 0.00 in 23.0 W/m2 BKN
18:54 41.0 °F 12.6 °F 30.52 in SW 2.2 mph 3.5 mph 31 % 0.00 in 19.0 W/m2 BKN
18:59 40.8 °F 12.5 °F 30.53 in WSW 0.2 mph 3.5 mph 31 % 0.00 in 16.0 W/m2 SCT
19:04 40.6 °F 12.3 °F 30.52 in WSW 0.3 mph 3.5 mph 31 % 0.00 in 12.0 W/m2 SCT
19:09 40.3 °F 12.7 °F 30.52 in SW 1.5 mph 3.5 mph 32 % 0.00 in 9.0 W/m2 FEW
19:14 40.2 °F 12.6 °F 30.52 in Calm     32 % 0.00 in 7.0 W/m2 CLR
19:19 39.9 °F 13.1 °F 30.52 in Calm   3.5 mph 33 % 0.00 in 0.0 W/m2 CLR
19:24 39.7 °F 13.6 °F 30.53 in Calm   1.2 mph 34 % 0.00 in 0.0 W/m2 CLR
19:29 39.4 °F 13.3 °F 30.53 in Calm     34 % 0.00 in 0.0 W/m2 CLR
19:35 39.3 °F 13.9 °F 30.53 in Calm     35 % 0.00 in 0.0 W/m2 CLR
19:40 39.1 °F 13.7 °F 30.53 in Calm     35 % 0.00 in 0.0 W/m2 CLR
19:45 39.0 °F 13.6 °F 30.53 in Calm     35 % 0.00 in 0.0 W/m2 CLR
19:55 38.5 °F 13.8 °F 30.53 in Calm     36 % 0.00 in 0.0 W/m2 CLR
20:00 38.2 °F 14.8 °F 30.53 in Calm     38 % 0.00 in 0.0 W/m2 CLR
20:05 38.1 °F 14.7 °F 30.54 in Calm     38 % 0.00 in 0.0 W/m2 CLR
20:10 37.9 °F 14.5 °F 30.54 in Calm     38 % 0.00 in 0.0 W/m2 CLR
20:15 37.4 °F 15.2 °F 30.54 in Calm     40 % 0.00 in 0.0 W/m2 CLR
20:20 37.3 °F 14.6 °F 30.55 in Calm     39 % 0.00 in 0.0 W/m2 CLR
20:25 37.0 °F 14.9 °F 30.55 in Calm     40 % 0.00 in 0.0 W/m2 CLR
20:30 37.2 °F 15.1 °F 30.54 in Calm     40 % 0.00 in 0.0 W/m2 CLR
20:35 36.9 °F 15.4 °F 30.54 in Calm     41 % 0.00 in 0.0 W/m2 CLR
20:40 36.6 °F 15.6 °F 30.54 in Calm     42 % 0.00 in 0.0 W/m2 CLR
20:45 36.1 °F 16.3 °F 30.54 in Calm     44 % 0.00 in 0.0 W/m2 CLR
20:50 36.1 °F 17.3 °F 30.55 in Calm     46 % 0.00 in 0.0 W/m2 CLR
20:55 35.9 °F 16.6 °F 30.55 in Calm     45 % 0.00 in 0.0 W/m2 CLR
21:00 35.5 °F 15.7 °F 30.56 in Calm     44 % 0.00 in 0.0 W/m2 CLR
21:05 35.1 °F 15.9 °F 30.56 in Calm     45 % 0.00 in 0.0 W/m2 CLR
21:10 34.9 °F 16.2 °F 30.56 in Calm     46 % 0.00 in 0.0 W/m2 CLR
21:15 35.1 °F 16.4 °F 30.57 in Calm     46 % 0.00 in 0.0 W/m2 CLR
21:20 35.1 °F 15.9 °F 30.57 in Calm     45 % 0.00 in 0.0 W/m2 CLR
21:25 34.9 °F 16.2 °F 30.57 in Calm     46 % 0.00 in 0.0 W/m2 CLR
21:30 34.4 °F 17.2 °F 30.57 in Calm     49 % 0.00 in 0.0 W/m2 CLR
21:35 34.4 °F 17.2 °F 30.58 in Calm     49 % 0.00 in 0.0 W/m2 CLR
21:40 34.2 °F 17.5 °F 30.57 in Calm     50 % 0.00 in 0.0 W/m2 CLR
21:45 33.7 °F 17.0 °F 30.57 in Calm     50 % 0.00 in 0.0 W/m2 CLR
21:50 33.7 °F 17.0 °F 30.57 in Calm     50 % 0.00 in 0.0 W/m2 CLR
21:55 33.6 °F 16.9 °F 30.57 in Calm     50 % 0.00 in 0.0 W/m2 CLR
22:00 33.4 °F 18.1 °F 30.57 in Calm     53 % 0.00 in 0.0 W/m2 CLR
22:05 33.1 °F 18.7 °F 30.57 in Calm     55 % 0.00 in 0.0 W/m2 CLR
22:10 32.7 °F 18.3 °F 30.57 in Calm     55 % 0.00 in 0.0 W/m2 CLR
22:15 32.2 °F 19.1 °F 30.57 in Calm     58 % 0.00 in 0.0 W/m2 CLR
22:20 31.7 °F 17.8 °F 30.57 in Calm     56 % 0.00 in 0.0 W/m2 CLR
22:25 31.7 °F 18.2 °F 30.56 in Calm     57 % 0.00 in 0.0 W/m2 CLR
22:30 31.5 °F 18.4 °F 30.56 in Calm     58 % 0.00 in 0.0 W/m2 CLR
22:35 31.4 °F 17.9 °F 30.56 in Calm     57 % 0.00 in 0.0 W/m2 CLR
22:40 31.3 °F 17.8 °F 30.56 in Calm     57 % 0.00 in 0.0 W/m2 CLR
22:45 31.2 °F 18.5 °F 30.55 in Calm     59 % 0.00 in 0.0 W/m2 CLR
22:50 31.1 °F 18.8 °F 30.55 in Calm     60 % 0.00 in 0.0 W/m2 CLR
22:55 30.9 °F 19.0 °F 30.55 in Calm     61 % 0.00 in 0.0 W/m2 CLR
23:00 30.6 °F 19.1 °F 30.55 in Calm     62 % 0.00 in 0.0 W/m2 CLR
23:05 30.3 °F 19.2 °F 30.55 in Calm     63 % 0.00 in 0.0 W/m2 CLR
23:10 30.5 °F 18.6 °F 30.55 in Calm     61 % 0.00 in 0.0 W/m2 CLR
23:15 30.8 °F 18.9 °F 30.55 in Calm     61 % 0.00 in 0.0 W/m2 CLR
23:20 30.8 °F 18.9 °F 30.55 in Calm     61 % 0.00 in 0.0 W/m2 CLR
23:25 30.6 °F 19.1 °F 30.54 in Calm     62 % 0.00 in 0.0 W/m2 CLR
23:30 30.5 °F 19.4 °F 30.54 in Calm     63 % 0.00 in 0.0 W/m2 CLR
23:35 30.2 °F 19.5 °F 30.54 in Calm     64 % 0.00 in 0.0 W/m2 CLR
23:40 30.1 °F 19.4 °F 30.55 in Calm     64 % 0.00 in 0.0 W/m2 CLR
23:45 29.9 °F 18.8 °F 30.55 in Calm     63 % 0.00 in 0.0 W/m2 CLR
23:50 29.8 °F 19.1 °F 30.55 in Calm     64 % 0.00 in 0.0 W/m2 CLR
23:55 29.5 °F 19.2 °F 30.55 in Calm     65 % 0.00 in 0.0 W/m2 CLR
Air Products Campus Weather
Compliments of Weather Underground - 3.25 mb